Stanley, ID

10:11 PM MDT on March 27, 2017 (GMT -0600)
Stanley

Weather History for KSNT - November, 2011

Change the Weather History Date:

Thursday, November 17, 2011

  Actual Average Record
Temperature  
Mean Temperature 32 °F 23 °F  
Max Temperature 40 °F 34 °F 54 °F (1989)
Min Temperature 24 °F 12 °F -8 °F (2000)
Degree Days  
Heating Degree Days 33 42  
Month to date heating degree days 703 643  
Since 1 July heating degree days 2419 2507  
Cooling Degree Days 0 0  
Month to date cooling degree days 0 0  
Year to date cooling degree days 3 3  
Moisture  
Dew Point 28 °F    
Average Humidity 82    
Maximum Humidity 100    
Minimum Humidity 64    
Precipitation  
Precipitation 0.67 in 0.07 in 0.73 in (2007)
Month to date precipitation 1.17 1.42  
Year to date precipitation 17.61 15.10  
Sea Level Pressure  
Sea Level Pressure 29.74 in    
Wind  
Wind Speed 6 mph (SSW)    
Max Wind Speed 25 mph    
Max Gust Speed 45 mph    
T = Trace of Precipitation, MM = Missing Value Source: NWS Daily Summary

Daily Weather History Graph

Daily Weather History Graph

Search for Another Location

Airport or City:

Trip Planner

Search our weather history database for the weather conditions in past years. The results will help you decide how hot, cold, wet, or windy it might be!

Date:

Astronomy

Nov. 17, 2011 Rise Set
Actual Time 7:37 AM MST 5:11 PM MST
Civil Twilight 7:06 AM MST 5:42 PM MST
Nautical Twilight 6:30 AM MST 6:17 PM MST
Astronomical Twilight 5:56 AM MST 6:52 PM MST
Moon 11:41 PM MST (11/17) 12:44 PM MST (11/17)
Length of Visible Light 10h 36m
Length of Day
9h 33m
Waning Gibbous, 59% of the Moon is Illuminated
Nov 17
Waning Gibbous
Nov 18
Last Quarter
Nov 24
New
Dec 2
First Quarter
Dec 10
Full

Hourly Weather History & Observations

Time (MST) Temp. Windchill Dew Point Humidity Pressure Visibility Wind Dir Wind Speed Gust Speed Precip Events Conditions
12:51 AM 25.0 °F - 21.9 °F 88% 30.09 in - Calm Calm - N/A   Unknown
1:51 AM 27.0 °F 21.6 °F 24.1 °F 89% 30.03 in - SE 4.6 mph - N/A   Unknown
2:51 AM 33.1 °F 26.9 °F 27.0 °F 78% 29.94 in - SSW 6.9 mph - N/A   Unknown
3:51 AM 34.0 °F - 28.0 °F 79% 29.91 in - Calm Calm - N/A   Unknown
4:51 AM 32.0 °F 23.0 °F 30.0 °F 92% 29.90 in - SE 11.5 mph 17.3 mph 0.03 in   Unknown
5:51 AM 33.1 °F 23.4 °F 30.0 °F 89% 29.86 in - SSE 13.8 mph 19.6 mph 0.05 in   Unknown
6:51 AM 33.1 °F - 30.0 °F 89% 29.84 in - Calm Calm - 0.01 in   Unknown
7:51 AM 35.1 °F 29.3 °F 30.0 °F 82% 29.82 in - SSE 6.9 mph - 0.02 in   Unknown
8:51 AM 36.0 °F 30.3 °F 30.9 °F 82% 29.81 in - Variable 6.9 mph - N/A   Unknown
9:51 AM 36.0 °F 29.6 °F 30.9 °F 82% 29.77 in - South 8.1 mph - 0.01 in   Unknown
10:12 AM 37.4 °F 31.4 °F 30.2 °F 75% 29.83 in - SW 8.1 mph 29.9 mph N/A   Unknown
10:51 AM 39.0 °F 29.9 °F 28.9 °F 67% 29.75 in - SW 17.3 mph 25.3 mph 0.01 in   Unknown
11:51 AM 36.0 °F 29.0 °F 32.0 °F 86% 29.74 in - South 9.2 mph - N/A   Unknown
12:51 PM 34.0 °F 29.8 °F 30.9 °F 89% 29.73 in - South 4.6 mph - 0.01 in   Unknown
1:51 PM 36.0 °F 31.1 °F 30.0 °F 79% 29.68 in - Variable 5.8 mph - 0.03 in   Unknown
2:51 PM 34.0 °F 31.0 °F 30.9 °F 89% 29.64 in - North 3.5 mph - 0.01 in   Unknown
3:51 PM 32.0 °F - 30.9 °F 96% 29.64 in - Calm Calm - 0.09 in   Unknown
4:51 PM 32.0 °F - 30.9 °F 96% 29.63 in - Calm Calm - 0.12 in   Unknown
5:51 PM 32.0 °F - 30.9 °F 96% 29.59 in - Calm Calm - 0.09 in   Unknown
6:51 PM 32.0 °F 28.7 °F 30.0 °F 92% 29.58 in - Variable 3.5 mph - 0.05 in   Unknown
7:51 PM 30.9 °F - 30.0 °F 96% 29.57 in - Calm Calm - 0.06 in   Unknown
8:51 PM 30.0 °F 26.5 °F 28.9 °F 96% 29.55 in - Variable 3.5 mph - 0.04 in   Unknown
9:51 PM 30.0 °F 20.0 °F 24.1 °F 79% 29.54 in - NW 12.7 mph 19.6 mph 0.03 in   Unknown
10:51 PM 30.0 °F 21.1 °F 21.9 °F 72% 29.53 in - West 10.4 mph - 0.01 in   Unknown
11:51 PM 28.9 °F 19.2 °F 19.0 °F 67% 29.54 in - West 11.5 mph 20.7 mph N/A   Unknown